Time,TemperatureF,DewpointF,PressureIn,WindDirection,WindDirectionDegrees,WindSpeedMPH,WindSpeedGustMPH,Humidity,HourlyPrecipIn,Conditions,Clouds,dailyrainin,SoftwareType,DateUTC
2013-08-18 00:01:00,64.5,60.2,30.25,ESE,116,0.0,0.0,86,0.00,,OVC300,0.00,VWS V14.01,2013-08-18 04:01:00,
2013-08-18 00:02:00,64.5,60.2,30.25,ESE,116,0.0,0.0,86,0.00,,OVC300,0.00,VWS V14.01,2013-08-18 04:02:00,
2013-08-18 00:07:00,64.5,60.2,30.25,ESE,116,0.0,0.0,86,0.00,,OVC300,0.00,VWS V14.01,2013-08-18 04:07:00,
2013-08-18 00:12:00,64.4,59.8,30.25,ESE,116,0.0,0.0,85,0.00,,OVC300,0.00,VWS V14.01,2013-08-18 04:12:00,
2013-08-18 00:17:00,64.4,59.8,30.25,ESE,116,0.0,0.0,85,0.00,,OVC300,0.00,VWS V14.01,2013-08-18 04:17:00,
2013-08-18 00:23:00,64.4,59.8,30.25,ESE,116,0.0,0.0,85,0.00,,OVC300,0.00,VWS V14.01,2013-08-18 04:23:00,
2013-08-18 00:28:00,64.3,59.7,30.25,ESE,116,0.0,0.0,85,0.00,,OVC300,0.00,VWS V14.01,2013-08-18 04:28:00,
2013-08-18 00:33:00,64.2,59.6,30.25,ESE,116,0.0,0.0,85,0.00,,OVC300,0.00,VWS V14.01,2013-08-18 04:33:00,
2013-08-18 00:38:00,64.1,59.5,30.25,ESE,116,0.0,0.0,85,0.00,,OVC300,0.00,VWS V14.01,2013-08-18 04:38:00,
2013-08-18 00:43:00,64.0,59.7,30.24,ESE,116,0.0,0.0,86,0.00,,OVC300,0.00,VWS V14.01,2013-08-18 04:43:00,
2013-08-18 00:48:00,63.8,59.5,30.24,ESE,116,0.0,0.0,86,0.00,,OVC300,0.00,VWS V14.01,2013-08-18 04:48:00,
2013-08-18 00:53:00,63.7,59.4,30.24,ESE,116,0.0,0.0,86,0.00,,OVC300,0.00,VWS V14.01,2013-08-18 04:53:00,
2013-08-18 00:58:00,63.6,59.3,30.24,ESE,116,0.0,0.0,86,0.00,,OVC300,0.00,VWS V14.01,2013-08-18 04:58:00,
2013-08-18 01:03:00,63.5,59.2,30.24,ESE,116,0.0,0.0,86,0.00,,BKN300,0.00,VWS V14.01,2013-08-18 05:03:00,
2013-08-18 01:09:00,63.4,59.2,30.24,ESE,116,0.0,0.0,86,0.00,,BKN300,0.00,VWS V14.01,2013-08-18 05:09:00,
2013-08-18 01:14:00,63.3,59.0,30.24,ESE,116,0.0,0.0,86,0.00,,BKN300,0.00,VWS V14.01,2013-08-18 05:14:00,
2013-08-18 01:19:00,63.1,58.8,30.24,ESE,116,0.0,0.0,86,0.00,,BKN300,0.00,VWS V14.01,2013-08-18 05:19:00,
2013-08-18 01:24:00,63.0,59.1,30.24,ESE,116,0.0,0.0,87,0.00,,BKN300,0.00,VWS V14.01,2013-08-18 05:24:00,
2013-08-18 01:29:00,62.9,59.0,30.24,ESE,116,0.0,0.0,87,0.00,,BKN300,0.00,VWS V14.01,2013-08-18 05:29:00,
2013-08-18 01:34:00,62.8,58.9,30.24,ESE,116,0.0,0.0,87,0.00,,BKN300,0.00,VWS V14.01,2013-08-18 05:34:00,
2013-08-18 01:40:00,62.7,58.8,30.24,ESE,116,0.0,0.0,87,0.00,,BKN300,0.00,VWS V14.01,2013-08-18 05:40:00,
2013-08-18 01:45:00,62.7,59.1,30.24,ESE,116,0.0,0.0,88,0.00,,BKN300,0.00,VWS V14.01,2013-08-18 05:45:00,
2013-08-18 01:50:00,62.6,59.0,30.24,ESE,116,0.0,0.0,88,0.00,,BKN300,0.00,VWS V14.01,2013-08-18 05:50:00,
2013-08-18 01:55:00,62.6,59.0,30.24,ESE,116,0.0,0.0,88,0.00,,BKN300,0.00,VWS V14.01,2013-08-18 05:55:00,
2013-08-18 02:00:00,62.5,58.9,30.24,ESE,116,0.0,0.0,88,0.00,,BKN300,0.00,VWS V14.01,2013-08-18 06:00:00,
2013-08-18 02:06:00,62.5,58.9,30.24,ESE,116,0.0,0.0,88,0.00,,BKN300,0.00,VWS V14.01,2013-08-18 06:06:00,
2013-08-18 02:11:00,62.4,58.8,30.23,ESE,116,0.0,0.0,88,0.00,,BKN300,0.00,VWS V14.01,2013-08-18 06:11:00,
2013-08-18 02:16:00,62.3,59.0,30.23,ESE,116,0.0,0.0,89,0.00,,BKN300,0.00,VWS V14.01,2013-08-18 06:16:00,
2013-08-18 02:22:00,62.3,59.0,30.23,ESE,116,0.0,0.0,89,0.00,,OVC300,0.00,VWS V14.01,2013-08-18 06:22:00,
2013-08-18 02:27:00,62.3,59.0,30.23,ESE,116,0.0,0.0,89,0.00,,OVC300,0.00,VWS V14.01,2013-08-18 06:27:00,
2013-08-18 02:33:00,62.2,58.9,30.23,ESE,116,0.0,0.0,89,0.00,,OVC300,0.00,VWS V14.01,2013-08-18 06:33:00,
2013-08-18 02:38:00,62.2,58.9,30.23,ESE,116,0.0,0.0,89,0.00,,OVC300,0.00,VWS V14.01,2013-08-18 06:38:00,
2013-08-18 02:43:00,62.1,58.8,30.23,ESE,116,0.0,0.0,89,0.00,,OVC300,0.00,VWS V14.01,2013-08-18 06:43:00,
2013-08-18 02:48:00,62.0,58.7,30.23,ESE,116,0.0,0.0,89,0.00,,OVC300,0.00,VWS V14.01,2013-08-18 06:48:00,
2013-08-18 02:53:00,62.0,58.7,30.24,ESE,116,0.0,0.0,89,0.00,,OVC300,0.00,VWS V14.01,2013-08-18 06:53:00,
2013-08-18 02:58:00,62.0,59.0,30.24,ESE,116,0.0,0.0,90,0.00,,OVC300,0.00,VWS V14.01,2013-08-18 06:58:00,
2013-08-18 03:04:00,62.0,59.0,30.24,ESE,116,0.0,0.0,90,0.00,,OVC300,0.00,VWS V14.01,2013-08-18 07:04:00,
2013-08-18 03:09:00,61.9,58.9,30.24,ESE,116,0.0,0.0,90,0.00,,OVC300,0.00,VWS V14.01,2013-08-18 07:09:00,
2013-08-18 03:14:00,61.9,58.9,30.24,ESE,116,0.0,0.0,90,0.00,,OVC300,0.00,VWS V14.01,2013-08-18 07:14:00,
2013-08-18 03:20:00,62.0,59.0,30.24,ESE,116,0.0,0.0,90,0.00,,OVC300,0.00,VWS V14.01,2013-08-18 07:20:00,
2013-08-18 03:25:00,62.1,59.1,30.24,ESE,116,0.0,0.0,90,0.00,,BKN300,0.00,VWS V14.01,2013-08-18 07:25:00,
2013-08-18 03:30:00,62.2,59.2,30.24,ESE,116,0.0,0.0,90,0.00,,BKN300,0.00,VWS V14.01,2013-08-18 07:30:00,
2013-08-18 03:35:00,62.4,59.4,30.23,ESE,116,0.0,0.0,90,0.00,,BKN300,0.00,VWS V14.01,2013-08-18 07:35:00,
2013-08-18 03:40:00,62.5,59.5,30.24,ESE,116,0.0,0.0,90,0.00,,BKN300,0.00,VWS V14.01,2013-08-18 07:40:00,
2013-08-18 03:45:00,62.5,59.5,30.24,ESE,116,0.0,0.0,90,0.00,,BKN300,0.00,VWS V14.01,2013-08-18 07:45:00,
2013-08-18 03:51:00,62.6,59.6,30.24,ESE,116,0.0,0.0,90,0.00,,BKN300,0.00,VWS V14.01,2013-08-18 07:51:00,
2013-08-18 03:56:00,62.7,59.7,30.24,ESE,116,0.0,0.0,90,0.00,,BKN300,0.00,VWS V14.01,2013-08-18 07:56:00,
2013-08-18 04:01:00,62.7,59.7,30.24,ESE,116,0.0,0.0,90,0.00,,BKN300,0.00,VWS V14.01,2013-08-18 08:01:00,
2013-08-18 04:06:00,62.8,59.5,30.24,ESE,116,0.0,0.0,89,0.00,,BKN300,0.00,VWS V14.01,2013-08-18 08:06:00,
2013-08-18 04:11:00,62.9,59.6,30.24,ESE,116,0.0,0.0,89,0.00,,BKN300,0.00,VWS V14.01,2013-08-18 08:11:00,
2013-08-18 04:17:00,63.0,59.7,30.24,ESE,116,0.0,0.0,89,0.00,,BKN300,0.00,VWS V14.01,2013-08-18 08:17:00,
2013-08-18 04:22:00,63.1,59.8,30.24,ESE,116,0.0,0.0,89,0.00,,BKN300,0.00,VWS V14.01,2013-08-18 08:22:00,
2013-08-18 04:27:00,63.1,59.5,30.24,ESE,116,0.0,0.0,88,0.00,,BKN300,0.00,VWS V14.01,2013-08-18 08:27:00,
2013-08-18 04:32:00,63.2,59.6,30.24,ESE,116,0.0,0.0,88,0.00,,BKN300,0.00,VWS V14.01,2013-08-18 08:32:00,
2013-08-18 04:37:00,63.2,59.6,30.24,ESE,116,0.0,0.0,88,0.00,,BKN300,0.00,VWS V14.01,2013-08-18 08:37:00,
2013-08-18 04:42:00,63.2,59.6,30.24,ESE,116,0.0,0.0,88,0.00,,BKN300,0.00,VWS V14.01,2013-08-18 08:42:00,
2013-08-18 04:47:00,63.2,59.3,30.24,ESE,116,0.0,0.0,87,0.00,,BKN300,0.00,VWS V14.01,2013-08-18 08:47:00,
2013-08-18 04:52:00,63.2,59.3,30.24,ESE,116,0.0,0.0,87,0.00,,BKN300,0.00,VWS V14.01,2013-08-18 08:52:00,
2013-08-18 04:57:00,63.2,59.3,30.24,ESE,116,0.0,0.0,87,0.00,,BKN300,0.00,VWS V14.01,2013-08-18 08:57:00,
2013-08-18 05:03:00,63.2,59.3,30.24,ESE,116,0.0,0.0,87,0.00,,BKN300,0.00,VWS V14.01,2013-08-18 09:03:00,
2013-08-18 05:08:00,63.3,59.4,30.24,ESE,116,0.0,0.0,87,0.00,,BKN300,0.00,VWS V14.01,2013-08-18 09:08:00,
2013-08-18 05:13:00,63.2,59.3,30.24,ESE,116,0.0,0.0,87,0.00,,BKN300,0.00,VWS V14.01,2013-08-18 09:13:00,
2013-08-18 05:18:00,63.2,59.3,30.23,ESE,116,0.0,0.0,87,0.00,,BKN300,0.00,VWS V14.01,2013-08-18 09:18:00,
2013-08-18 05:23:00,63.1,59.2,30.23,ESE,116,0.0,0.0,87,0.00,,BKN300,0.00,VWS V14.01,2013-08-18 09:23:00,
2013-08-18 05:28:00,63.0,59.1,30.23,ESE,116,0.0,0.0,87,0.00,,BKN300,0.00,VWS V14.01,2013-08-18 09:28:00,
2013-08-18 05:33:00,62.8,59.2,30.24,ESE,116,0.0,0.0,88,0.00,,BKN300,0.00,VWS V14.01,2013-08-18 09:33:00,
2013-08-18 05:38:00,62.7,59.1,30.23,ESE,116,0.0,0.0,88,0.00,,BKN300,0.00,VWS V14.01,2013-08-18 09:38:00,
2013-08-18 05:43:00,62.5,58.9,30.24,ESE,116,0.0,0.0,88,0.00,,BKN300,0.00,VWS V14.01,2013-08-18 09:43:00,
2013-08-18 05:48:00,62.4,58.8,30.24,ESE,116,0.0,0.0,88,0.00,,BKN300,0.00,VWS V14.01,2013-08-18 09:48:00,
2013-08-18 05:53:00,62.3,59.0,30.24,ESE,116,0.0,0.0,89,0.00,,BKN300,0.00,VWS V14.01,2013-08-18 09:53:00,
2013-08-18 05:58:00,62.2,58.9,30.24,ESE,116,0.0,0.0,89,0.00,,BKN300,0.00,VWS V14.01,2013-08-18 09:58:00,
2013-08-18 06:03:00,62.2,58.9,30.24,ESE,116,0.0,0.0,89,0.00,,BKN300,0.00,VWS V14.01,2013-08-18 10:03:00,
2013-08-18 06:08:00,62.1,58.8,30.24,ESE,116,0.0,0.0,89,0.00,,BKN300,0.00,VWS V14.01,2013-08-18 10:08:00,
2013-08-18 06:13:00,62.0,58.7,30.24,ESE,116,0.0,0.0,89,0.00,,BKN300,0.00,VWS V14.01,2013-08-18 10:13:00,
2013-08-18 06:19:00,61.9,58.6,30.24,ESE,116,0.0,0.0,89,0.00,,BKN300,0.00,VWS V14.01,2013-08-18 10:19:00,
2013-08-18 06:24:00,61.8,58.8,30.24,ESE,116,0.0,0.0,90,0.00,,BKN300,0.00,VWS V14.01,2013-08-18 10:24:00,
2013-08-18 06:29:00,61.8,58.8,30.24,ESE,116,0.0,0.0,90,0.00,,BKN300,0.00,VWS V14.01,2013-08-18 10:29:00,
2013-08-18 06:34:00,61.8,58.8,30.24,ESE,116,0.0,0.0,90,0.00,,BKN300,0.00,VWS V14.01,2013-08-18 10:34:00,
2013-08-18 06:39:00,61.8,58.8,30.24,ESE,116,0.0,0.0,90,0.00,,BKN300,0.00,VWS V14.01,2013-08-18 10:39:00,
2013-08-18 06:45:00,61.9,58.9,30.24,ESE,116,0.0,0.0,90,0.00,,BKN300,0.00,VWS V14.01,2013-08-18 10:45:00,
2013-08-18 06:50:00,62.1,59.1,30.24,ESE,116,0.0,0.0,90,0.00,,BKN300,0.00,VWS V14.01,2013-08-18 10:50:00,
2013-08-18 06:56:00,62.4,59.4,30.24,ESE,116,0.0,0.0,90,0.00,,BKN300,0.00,VWS V14.01,2013-08-18 10:56:00,
2013-08-18 07:01:00,62.7,59.7,30.24,ESE,116,0.0,0.0,90,0.00,,BKN300,0.00,VWS V14.01,2013-08-18 11:01:00,
2013-08-18 07:06:00,62.9,59.6,30.24,ESE,116,0.0,0.0,89,0.00,,BKN300,0.00,VWS V14.01,2013-08-18 11:06:00,
2013-08-18 07:31:00,64.6,60.3,30.25,ESE,116,0.0,2.0,86,0.00,,BKN300,0.00,VWS V14.01,2013-08-18 11:31:00,
2013-08-18 07:39:00,65.5,60.2,30.24,ESE,116,0.0,1.0,83,0.00,,BKN300,0.00,VWS V14.01,2013-08-18 11:39:00,
2013-08-18 07:45:00,66.2,60.5,30.24,ESE,116,0.0,1.0,82,0.00,,BKN300,0.00,VWS V14.01,2013-08-18 11:45:00,
2013-08-18 07:50:00,67.1,61.1,30.24,ESE,116,0.0,1.0,81,0.00,,BKN300,0.00,VWS V14.01,2013-08-18 11:50:00,
2013-08-18 07:55:00,67.9,60.8,30.24,ESE,116,0.0,2.0,78,0.00,,BKN300,0.00,VWS V14.01,2013-08-18 11:55:00,
2013-08-18 08:01:00,68.7,61.2,30.24,ESE,116,1.0,1.0,77,0.00,,BKN300,0.00,VWS V14.01,2013-08-18 12:01:00,
2013-08-18 08:06:00,69.2,61.3,30.24,ESE,116,1.0,2.0,76,0.00,,BKN300,0.00,VWS V14.01,2013-08-18 12:06:00,
2013-08-18 08:11:00,69.5,61.2,30.24,ESE,116,0.0,2.0,75,0.00,,BKN300,0.00,VWS V14.01,2013-08-18 12:11:00,
2013-08-18 08:16:00,70.1,61.4,30.24,ESE,116,0.0,2.0,74,0.00,,BKN300,0.00,VWS V14.01,2013-08-18 12:16:00,
2013-08-18 08:21:00,70.7,61.6,30.24,ESE,116,0.0,2.0,73,0.00,,BKN300,0.00,VWS V14.01,2013-08-18 12:21:00,
2013-08-18 08:26:00,70.6,61.5,30.25,ESE,116,0.0,4.0,73,0.00,,BKN300,0.00,VWS V14.01,2013-08-18 12:26:00,
2013-08-18 08:32:00,70.4,61.7,30.25,ESE,116,0.0,0.0,74,0.00,,BKN300,0.00,VWS V14.01,2013-08-18 12:32:00,
2013-08-18 08:37:00,70.4,61.7,30.25,ESE,116,0.0,2.0,74,0.00,,BKN300,0.00,VWS V14.01,2013-08-18 12:37:00,
2013-08-18 08:42:00,70.7,61.6,30.24,ESE,116,0.0,2.0,73,0.00,,BKN300,0.00,VWS V14.01,2013-08-18 12:42:00,
2013-08-18 08:47:00,70.9,61.8,30.24,ESE,116,0.0,4.0,73,0.00,,BKN300,0.00,VWS V14.01,2013-08-18 12:47:00,
2013-08-18 08:52:00,71.3,61.8,30.24,ESE,116,0.0,4.0,72,0.00,,BKN300,0.00,VWS V14.01,2013-08-18 12:52:00,
2013-08-18 08:57:00,72.0,62.1,30.24,ESE,116,0.0,4.0,71,0.00,,BKN300,0.00,VWS V14.01,2013-08-18 12:57:00,
2013-08-18 09:02:00,72.5,62.2,30.24,ESE,116,0.0,1.0,70,0.00,,BKN300,0.00,VWS V14.01,2013-08-18 13:02:00,
2013-08-18 09:07:00,72.5,62.2,30.24,ESE,116,0.0,1.0,70,0.00,,BKN300,0.00,VWS V14.01,2013-08-18 13:07:00,
2013-08-18 09:13:00,72.8,62.5,30.24,ESE,116,0.0,1.0,70,0.00,,BKN300,0.00,VWS V14.01,2013-08-18 13:13:00,
2013-08-18 09:18:00,72.8,62.5,30.24,ESE,116,1.0,2.0,70,0.00,,BKN300,0.00,VWS V14.01,2013-08-18 13:18:00,
2013-08-18 09:23:00,72.7,62.4,30.24,ESE,116,0.0,2.0,70,0.00,,BKN300,0.00,VWS V14.01,2013-08-18 13:23:00,
2013-08-18 09:29:00,73.2,62.8,30.24,ESE,116,0.0,2.0,70,0.00,,BKN300,0.00,VWS V14.01,2013-08-18 13:29:00,
2013-08-18 09:34:00,73.6,62.4,30.24,ESE,116,0.0,2.0,68,0.00,,BKN300,0.00,VWS V14.01,2013-08-18 13:34:00,
2013-08-18 09:39:00,73.8,62.2,30.24,ESE,116,1.0,4.0,67,0.00,,BKN300,0.00,VWS V14.01,2013-08-18 13:39:00,
2013-08-18 09:44:00,74.4,61.9,30.24,ESE,116,0.0,4.0,65,0.00,,BKN300,0.00,VWS V14.01,2013-08-18 13:44:00,
2013-08-18 09:50:00,75.0,62.5,30.24,ESE,116,0.0,4.0,65,0.00,,BKN300,0.00,VWS V14.01,2013-08-18 13:50:00,
2013-08-18 09:55:00,75.2,63.1,30.24,ESE,116,0.0,4.0,66,0.00,,BKN300,0.00,VWS V14.01,2013-08-18 13:55:00,
2013-08-18 10:00:00,74.6,62.5,30.24,ESE,116,4.0,5.0,66,0.00,,BKN300,0.00,VWS V14.01,2013-08-18 14:00:00,
2013-08-18 10:05:00,73.4,62.2,30.24,ESE,116,0.0,5.0,68,0.00,,BKN300,0.00,VWS V14.01,2013-08-18 14:05:00,
2013-08-18 10:10:00,72.6,62.3,30.24,ESE,116,0.0,5.0,70,0.00,,BKN300,0.00,VWS V14.01,2013-08-18 14:10:00,
2013-08-18 10:15:00,72.1,62.2,30.23,ESE,116,0.0,5.0,71,0.00,,BKN300,0.00,VWS V14.01,2013-08-18 14:15:00,
2013-08-18 10:20:00,72.1,62.2,30.23,ESE,116,0.0,5.0,71,0.00,,BKN300,0.00,VWS V14.01,2013-08-18 14:20:00,
2013-08-18 10:26:00,72.6,62.7,30.23,ESE,116,0.0,5.0,71,0.00,,BKN300,0.00,VWS V14.01,2013-08-18 14:26:00,
2013-08-18 10:31:00,72.9,62.5,30.23,ESE,116,0.0,5.0,70,0.00,,BKN300,0.00,VWS V14.01,2013-08-18 14:31:00,
2013-08-18 10:36:00,73.2,62.8,30.23,ESE,116,1.0,4.0,70,0.00,,BKN300,0.00,VWS V14.01,2013-08-18 14:36:00,
2013-08-18 10:41:00,73.6,62.8,30.23,ESE,116,0.0,4.0,69,0.00,,OVC300,0.00,VWS V14.01,2013-08-18 14:41:00,
2013-08-18 10:46:00,73.7,62.5,30.23,ESE,115,1.0,5.0,68,0.00,,OVC300,0.00,VWS V14.01,2013-08-18 14:46:00,
2013-08-18 10:52:00,73.4,62.2,30.24,ESE,115,4.0,5.0,68,0.00,,OVC300,0.00,VWS V14.01,2013-08-18 14:52:00,
2013-08-18 10:57:00,73.1,61.9,30.24,ESE,114,2.0,5.0,68,0.00,,OVC300,0.00,VWS V14.01,2013-08-18 14:57:00,
2013-08-18 11:02:00,73.1,61.9,30.24,ESE,113,0.0,1.0,68,0.00,,OVC300,0.00,VWS V14.01,2013-08-18 15:02:00,
2013-08-18 11:07:00,73.4,62.6,30.24,SE,125,0.0,6.0,69,0.00,,OVC300,0.00,VWS V14.01,2013-08-18 15:07:00,
2013-08-18 11:12:00,74.0,62.8,30.24,SE,128,4.0,6.0,68,0.00,,CLR,0.00,VWS V14.01,2013-08-18 15:12:00,
2013-08-18 11:17:00,74.3,63.1,30.23,SE,144,0.0,6.0,68,0.00,,CLR,0.00,VWS V14.01,2013-08-18 15:17:00,
2013-08-18 11:22:00,74.5,62.8,30.23,ESE,116,0.0,6.0,67,0.00,,CLR,0.00,VWS V14.01,2013-08-18 15:22:00,
2013-08-18 11:27:00,74.8,62.7,30.23,ESE,119,1.0,6.0,66,0.00,,CLR,0.00,VWS V14.01,2013-08-18 15:27:00,
2013-08-18 11:32:00,75.1,63.0,30.23,ESE,115,0.0,2.0,66,0.00,,CLR,0.00,VWS V14.01,2013-08-18 15:32:00,
2013-08-18 11:37:00,75.7,63.1,30.23,ESE,116,2.0,5.0,65,0.00,,CLR,0.00,VWS V14.01,2013-08-18 15:37:00,
2013-08-18 11:42:00,76.1,63.0,30.23,South,178,0.0,8.0,64,0.00,,CLR,0.00,VWS V14.01,2013-08-18 15:42:00,
2013-08-18 11:47:00,75.7,62.7,30.23,East,97,4.0,8.0,64,0.00,,CLR,0.00,VWS V14.01,2013-08-18 15:47:00,
2013-08-18 11:52:00,75.1,62.1,30.23,ESE,103,6.0,8.0,64,0.00,,CLR,0.00,VWS V14.01,2013-08-18 15:52:00,
2013-08-18 11:58:00,74.7,62.6,30.23,ESE,111,0.0,8.0,66,0.00,,CLR,0.00,VWS V14.01,2013-08-18 15:58:00,
2013-08-18 12:03:00,74.9,62.8,30.22,SE,139,1.0,5.0,66,0.00,,CLR,0.00,VWS V14.01,2013-08-18 16:03:00,
2013-08-18 12:08:00,75.4,62.8,30.22,SE,135,4.0,6.0,65,0.00,,CLR,0.00,VWS V14.01,2013-08-18 16:08:00,
2013-08-18 12:14:00,75.5,62.9,30.22,ESE,122,0.0,7.0,65,0.00,,CLR,0.00,VWS V14.01,2013-08-18 16:14:00,
2013-08-18 12:19:00,75.5,62.5,30.21,ESE,121,2.0,7.0,64,0.00,,CLR,0.00,VWS V14.01,2013-08-18 16:19:00,
2013-08-18 12:24:00,75.2,62.2,30.21,ESE,118,0.0,7.0,64,0.00,,CLR,0.00,VWS V14.01,2013-08-18 16:24:00,
2013-08-18 12:29:00,75.0,62.0,30.21,SE,133,2.0,7.0,64,0.00,,CLR,0.00,VWS V14.01,2013-08-18 16:29:00,
2013-08-18 12:34:00,74.6,62.1,30.21,SE,134,4.0,5.0,65,0.00,,CLR,0.00,VWS V14.01,2013-08-18 16:34:00,
2013-08-18 12:40:00,73.9,61.8,30.21,SE,142,4.0,6.0,66,0.00,,CLR,0.00,VWS V14.01,2013-08-18 16:40:00,
2013-08-18 12:45:00,73.4,60.9,30.21,SE,143,4.0,6.0,65,0.00,,CLR,0.00,VWS V14.01,2013-08-18 16:45:00,
2013-08-18 12:50:00,72.9,60.5,30.21,SE,144,4.0,6.0,65,0.00,,CLR,0.00,VWS V14.01,2013-08-18 16:50:00,
2013-08-18 12:55:00,72.8,60.4,30.21,SSE,154,2.0,7.0,65,0.00,,CLR,0.00,VWS V14.01,2013-08-18 16:55:00,
2013-08-18 13:00:00,72.7,60.3,30.21,SE,135,5.0,7.0,65,0.00,,OVC250,0.00,VWS V14.01,2013-08-18 17:00:00,
2013-08-18 13:06:00,72.7,60.3,30.21,SE,139,5.0,5.0,65,0.00,,OVC250,0.00,VWS V14.01,2013-08-18 17:06:00,
2013-08-18 13:11:00,72.5,60.5,30.21,SE,131,0.0,6.0,66,0.00,,OVC250,0.00,VWS V14.01,2013-08-18 17:11:00,
2013-08-18 13:16:00,72.5,60.5,30.21,SE,144,4.0,7.0,66,0.00,,OVC250,0.00,VWS V14.01,2013-08-18 17:16:00,
2013-08-18 13:21:00,72.4,60.4,30.21,SE,135,4.0,7.0,66,0.00,,OVC250,0.00,VWS V14.01,2013-08-18 17:21:00,
2013-08-18 13:26:00,72.3,60.7,30.20,SSE,156,2.0,7.0,67,0.00,,OVC250,0.00,VWS V14.01,2013-08-18 17:26:00,
2013-08-18 13:31:00,72.5,61.3,30.20,SSE,163,1.0,2.0,68,0.00,,OVC250,0.00,VWS V14.01,2013-08-18 17:31:00,
2013-08-18 13:36:00,72.8,61.6,30.20,SSE,163,0.0,4.0,68,0.00,,OVC250,0.00,VWS V14.01,2013-08-18 17:36:00,
2013-08-18 13:42:00,73.3,62.1,30.20,SSE,162,0.0,4.0,68,0.00,,OVC250,0.00,VWS V14.01,2013-08-18 17:42:00,
2013-08-18 13:47:00,73.7,62.1,30.20,SSE,163,5.0,5.0,67,0.00,,OVC250,0.00,VWS V14.01,2013-08-18 17:47:00,
2013-08-18 13:52:00,74.0,62.4,30.20,SSE,167,2.0,6.0,67,0.00,,OVC250,0.00,VWS V14.01,2013-08-18 17:52:00,
2013-08-18 13:57:00,74.2,62.5,30.19,SSE,159,4.0,6.0,67,0.00,,OVC250,0.00,VWS V14.01,2013-08-18 17:57:00,
2013-08-18 14:02:00,74.2,61.7,30.19,SE,139,2.0,6.0,65,0.00,,OVC250,0.00,VWS V14.01,2013-08-18 18:02:00,
2013-08-18 14:07:00,74.0,61.5,30.19,South,172,0.0,7.0,65,0.00,,OVC250,0.00,VWS V14.01,2013-08-18 18:07:00,
2013-08-18 14:13:00,74.0,61.5,30.19,SSE,166,4.0,7.0,65,0.00,,OVC250,0.00,VWS V14.01,2013-08-18 18:13:00,
2013-08-18 14:18:00,74.1,62.0,30.19,SSE,166,0.0,7.0,66,0.00,,OVC250,0.00,VWS V14.01,2013-08-18 18:18:00,
2013-08-18 14:24:00,74.6,62.1,30.18,SSE,167,1.0,7.0,65,0.00,,OVC250,0.00,VWS V14.01,2013-08-18 18:24:00,
2013-08-18 14:29:00,74.9,61.9,30.18,South,170,2.0,7.0,64,0.00,,OVC250,0.00,VWS V14.01,2013-08-18 18:29:00,
2013-08-18 14:34:00,74.9,61.9,30.18,SSE,162,5.0,6.0,64,0.00,,OVC250,0.00,VWS V14.01,2013-08-18 18:34:00,
2013-08-18 14:39:00,75.0,62.5,30.18,SSE,160,4.0,6.0,65,0.00,,OVC250,0.00,VWS V14.01,2013-08-18 18:39:00,
2013-08-18 14:44:00,75.0,62.0,30.17,SSE,165,0.0,6.0,64,0.00,,OVC250,0.00,VWS V14.01,2013-08-18 18:44:00,
2013-08-18 14:50:00,74.9,61.9,30.17,South,174,5.0,8.0,64,0.00,,OVC250,0.00,VWS V14.01,2013-08-18 18:50:00,
2013-08-18 14:55:00,74.4,62.3,30.17,South,171,4.0,8.0,66,0.00,,OVC250,0.00,VWS V14.01,2013-08-18 18:55:00,
2013-08-18 15:01:00,74.1,62.0,30.17,SSE,161,0.0,8.0,66,0.00,,OVC250,0.00,VWS V14.01,2013-08-18 19:01:00,
2013-08-18 15:06:00,74.1,61.6,30.17,SSE,163,0.0,5.0,65,0.00,,OVC250,0.00,VWS V14.01,2013-08-18 19:06:00,
2013-08-18 15:11:00,74.1,61.6,30.16,SSE,163,0.0,5.0,65,0.00,,OVC250,0.00,VWS V14.01,2013-08-18 19:11:00,
2013-08-18 15:17:00,74.0,61.5,30.16,SSE,163,4.0,6.0,65,0.00,,OVC250,0.00,VWS V14.01,2013-08-18 19:17:00,
2013-08-18 15:22:00,73.8,61.7,30.16,South,171,1.0,7.0,66,0.00,,OVC250,0.00,VWS V14.01,2013-08-18 19:22:00,
2013-08-18 15:27:00,73.7,62.1,30.16,South,169,0.0,7.0,67,0.00,,OVC250,0.00,VWS V14.01,2013-08-18 19:27:00,
2013-08-18 15:32:00,73.7,61.7,30.15,South,169,1.0,2.0,66,0.00,,OVC250,0.00,VWS V14.01,2013-08-18 19:32:00,
2013-08-18 15:37:00,73.4,61.4,30.15,SSE,164,1.0,6.0,66,0.00,,OVC250,0.00,VWS V14.01,2013-08-18 19:37:00,
2013-08-18 15:42:00,73.2,60.7,30.15,SSE,160,0.0,6.0,65,0.00,,OVC250,0.00,VWS V14.01,2013-08-18 19:42:00,
2013-08-18 15:47:00,73.1,61.1,30.15,SSE,160,1.0,6.0,66,0.00,,OVC250,0.00,VWS V14.01,2013-08-18 19:47:00,
2013-08-18 15:52:00,73.0,60.5,30.15,SSE,160,0.0,6.0,65,0.00,,OVC250,0.00,VWS V14.01,2013-08-18 19:52:00,
2013-08-18 15:58:00,72.9,60.5,30.14,SSE,150,0.0,6.0,65,0.00,,OVC250,0.00,VWS V14.01,2013-08-18 19:58:00,
2013-08-18 16:04:00,72.6,60.2,30.14,SSE,150,1.0,5.0,65,0.00,,OVC250,0.00,VWS V14.01,2013-08-18 20:04:00,
2013-08-18 16:09:00,72.5,60.5,30.14,SSE,150,0.0,5.0,66,0.00,,OVC250,0.00,VWS V14.01,2013-08-18 20:09:00,
2013-08-18 16:14:00,72.6,60.6,30.14,SSE,150,2.0,5.0,66,0.00,,OVC250,0.00,VWS V14.01,2013-08-18 20:14:00,
2013-08-18 16:19:00,72.6,60.6,30.13,SSE,150,0.0,5.0,66,0.00,,OVC250,0.00,VWS V14.01,2013-08-18 20:19:00,
2013-08-18 16:24:00,72.6,60.6,30.13,SSE,152,1.0,5.0,66,0.00,,OVC250,0.00,VWS V14.01,2013-08-18 20:24:00,
2013-08-18 16:29:00,72.4,60.4,30.13,SSE,156,4.0,7.0,66,0.00,,OVC250,0.00,VWS V14.01,2013-08-18 20:29:00,
2013-08-18 16:34:00,72.1,60.5,30.13,SSE,157,0.0,6.0,67,0.00,,OVC200,0.00,VWS V14.01,2013-08-18 20:34:00,
2013-08-18 16:40:00,72.0,60.0,30.13,SSE,159,4.0,7.0,66,0.00,,OVC200,0.00,VWS V14.01,2013-08-18 20:40:00,
2013-08-18 16:45:00,72.0,60.5,30.13,SSE,159,4.0,7.0,67,0.00,,OVC200,0.00,VWS V14.01,2013-08-18 20:45:00,
2013-08-18 16:50:00,71.8,60.3,30.13,SSE,159,5.0,7.0,67,0.00,,OVC200,0.00,VWS V14.01,2013-08-18 20:50:00,
2013-08-18 16:55:00,71.7,60.6,30.12,SSE,161,4.0,8.0,68,0.00,,OVC200,0.00,VWS V14.01,2013-08-18 20:55:00,
2013-08-18 17:00:00,71.8,60.7,30.12,SSE,163,2.0,8.0,68,0.00,,OVC220,0.00,VWS V14.01,2013-08-18 21:00:00,
2013-08-18 17:05:00,71.9,60.8,30.12,SSE,163,0.0,5.0,68,0.00,,OVC220,0.00,VWS V14.01,2013-08-18 21:05:00,
2013-08-18 17:10:00,71.9,60.8,30.12,SSE,167,1.0,7.0,68,0.00,,OVC220,0.00,VWS V14.01,2013-08-18 21:10:00,
2013-08-18 17:16:00,71.7,61.0,30.12,SSE,167,2.0,8.0,69,0.00,,OVC220,0.00,VWS V14.01,2013-08-18 21:16:00,
2013-08-18 17:21:00,71.7,61.0,30.12,SSE,167,1.0,8.0,69,0.00,,OVC220,0.00,VWS V14.01,2013-08-18 21:21:00,
2013-08-18 17:26:00,71.7,61.4,30.12,SSE,167,1.0,8.0,70,0.00,,OVC220,0.00,VWS V14.01,2013-08-18 21:26:00,
2013-08-18 17:31:00,71.7,61.4,30.12,SSE,167,0.0,0.0,70,0.00,,OVC220,0.00,VWS V14.01,2013-08-18 21:31:00,
2013-08-18 17:36:00,71.7,61.4,30.12,SSE,167,2.0,7.0,70,0.00,,OVC220,0.00,VWS V14.01,2013-08-18 21:36:00,
2013-08-18 17:41:00,71.7,61.4,30.12,SSE,167,1.0,7.0,70,0.00,,OVC220,0.00,VWS V14.01,2013-08-18 21:41:00,
2013-08-18 17:46:00,71.6,61.7,30.12,SSE,149,2.0,7.0,71,0.00,,OVC220,0.00,VWS V14.01,2013-08-18 21:46:00,
2013-08-18 17:52:00,71.5,62.0,30.11,SE,141,2.0,7.0,72,0.00,,OVC220,0.00,VWS V14.01,2013-08-18 21:52:00,
2013-08-18 17:57:00,71.4,62.3,30.11,SE,146,1.0,7.0,73,0.00,,OVC220,0.00,VWS V14.01,2013-08-18 21:57:00,
2013-08-18 18:02:00,71.2,62.1,30.11,SE,146,2.0,4.0,73,0.00,,OVC220,0.00,VWS V14.01,2013-08-18 22:02:00,
2013-08-18 18:07:00,71.0,62.3,30.11,SSE,147,0.0,5.0,74,0.00,,OVC220,0.00,VWS V14.01,2013-08-18 22:07:00,
2013-08-18 18:13:00,70.8,62.5,30.11,SSE,147,0.0,5.0,75,0.00,,OVC220,0.00,VWS V14.01,2013-08-18 22:13:00,
2013-08-18 18:18:00,70.8,62.5,30.11,SSE,147,0.0,5.0,75,0.00,,OVC220,0.00,VWS V14.01,2013-08-18 22:18:00,
2013-08-18 18:23:00,70.7,62.4,30.11,SSE,147,0.0,5.0,75,0.00,,OVC220,0.00,VWS V14.01,2013-08-18 22:23:00,
2013-08-18 18:28:00,70.6,62.7,30.11,SSE,147,0.0,5.0,76,0.00,,OVC220,0.00,VWS V14.01,2013-08-18 22:28:00,
2013-08-18 18:33:00,70.5,62.6,30.11,SSE,147,0.0,0.0,76,0.00,,OVC220,0.00,VWS V14.01,2013-08-18 22:33:00,
2013-08-18 18:38:00,70.4,62.5,30.11,SSE,147,0.0,0.0,76,0.00,,OVC220,0.00,VWS V14.01,2013-08-18 22:38:00,
2013-08-18 18:43:00,70.4,62.8,30.11,SSE,147,0.0,0.0,77,0.00,,OVC220,0.00,VWS V14.01,2013-08-18 22:43:00,
2013-08-18 18:48:00,70.3,62.8,30.10,SSE,147,0.0,0.0,77,0.00,,OVC220,0.00,VWS V14.01,2013-08-18 22:48:00,
2013-08-18 18:53:00,70.3,62.8,30.10,SSE,147,0.0,0.0,77,0.00,,OVC220,0.00,VWS V14.01,2013-08-18 22:53:00,
2013-08-18 18:59:00,70.3,62.8,30.10,SSE,147,0.0,0.0,77,0.00,,OVC220,0.00,VWS V14.01,2013-08-18 22:59:00,
2013-08-18 19:04:00,70.3,62.8,30.10,SSE,147,1.0,2.0,77,0.00,,OVC200,0.00,VWS V14.01,2013-08-18 23:04:00,
2013-08-18 19:09:00,70.3,62.8,30.10,SSE,147,0.0,2.0,77,0.00,,OVC200,0.00,VWS V14.01,2013-08-18 23:09:00,
2013-08-18 19:14:00,70.2,62.7,30.10,SSE,147,0.0,2.0,77,0.00,,OVC200,0.00,VWS V14.01,2013-08-18 23:14:00,
2013-08-18 19:20:00,70.2,62.7,30.10,SSE,147,0.0,2.0,77,0.00,,OVC200,0.00,VWS V14.01,2013-08-18 23:20:00,
2013-08-18 19:25:00,70.1,62.2,30.10,SSE,147,0.0,2.0,76,0.00,,OVC200,0.00,VWS V14.01,2013-08-18 23:25:00,
2013-08-18 19:30:00,70.1,62.2,30.10,SSE,147,0.0,2.0,76,0.00,,OVC200,0.00,VWS V14.01,2013-08-18 23:30:00,
2013-08-18 19:35:00,70.0,62.1,30.10,SSE,147,0.0,0.0,76,0.00,,OVC200,0.00,VWS V14.01,2013-08-18 23:35:00,
2013-08-18 19:41:00,69.9,62.0,30.10,SSE,147,0.0,0.0,76,0.00,,OVC200,0.00,VWS V14.01,2013-08-18 23:41:00,
2013-08-18 19:45:00,69.9,62.0,30.10,SSE,147,0.0,0.0,76,0.00,,OVC200,0.00,VWS V14.01,2013-08-18 23:45:00,
2013-08-18 19:51:00,69.8,61.9,30.10,SSE,147,0.0,0.0,76,0.00,,OVC200,0.00,VWS V14.01,2013-08-18 23:51:00,
2013-08-18 19:56:00,69.8,61.9,30.10,SSE,147,0.0,0.0,76,0.00,,OVC200,0.00,VWS V14.01,2013-08-18 23:56:00,
2013-08-18 20:01:00,69.9,61.6,30.10,SSE,147,0.0,0.0,75,0.00,,OVC250,0.00,VWS V14.01,2013-08-19 00:01:00,
2013-08-18 20:06:00,69.8,61.5,30.10,SSE,147,0.0,0.0,75,0.00,,OVC250,0.00,VWS V14.01,2013-08-19 00:06:00,
2013-08-18 20:11:00,69.8,61.2,30.10,SSE,147,0.0,4.0,74,0.00,,OVC250,0.00,VWS V14.01,2013-08-19 00:11:00,
2013-08-18 20:16:00,69.8,61.2,30.10,SSE,147,0.0,4.0,74,0.00,,OVC250,0.00,VWS V14.01,2013-08-19 00:16:00,
2013-08-18 20:21:00,69.8,60.8,30.10,SSE,147,0.0,4.0,73,0.00,,OVC250,0.00,VWS V14.01,2013-08-19 00:21:00,
2013-08-18 20:27:00,69.7,60.7,30.11,SSE,147,0.0,5.0,73,0.00,,OVC250,0.00,VWS V14.01,2013-08-19 00:27:00,
2013-08-18 20:33:00,69.7,60.7,30.10,SSE,147,0.0,0.0,73,0.00,,OVC250,0.00,VWS V14.01,2013-08-19 00:33:00,
2013-08-18 20:38:00,69.7,60.7,30.10,SSE,147,0.0,0.0,73,0.00,,OVC250,0.00,VWS V14.01,2013-08-19 00:38:00,
2013-08-18 20:43:00,69.6,60.6,30.10,SSE,147,0.0,0.0,73,0.00,,OVC250,0.00,VWS V14.01,2013-08-19 00:43:00,
2013-08-18 20:49:00,69.5,60.5,30.10,SSE,147,0.0,0.0,73,0.00,,OVC250,0.00,VWS V14.01,2013-08-19 00:49:00,
2013-08-18 20:54:00,69.4,60.8,30.10,SSE,147,0.0,0.0,74,0.00,,OVC250,0.00,VWS V14.01,2013-08-19 00:54:00,
2013-08-18 20:59:00,69.3,60.7,30.10,SSE,147,0.0,0.0,74,0.00,,OVC250,0.00,VWS V14.01,2013-08-19 00:59:00,
2013-08-18 21:04:00,69.2,60.2,30.10,SSE,147,0.0,0.0,73,0.00,,OVC250,0.00,VWS V14.01,2013-08-19 01:04:00,
2013-08-18 21:09:00,69.1,60.1,30.10,SSE,147,0.0,0.0,73,0.00,,OVC250,0.00,VWS V14.01,2013-08-19 01:09:00,
2013-08-18 21:14:00,69.1,60.1,30.10,SSE,147,0.0,0.0,73,0.00,,OVC250,0.00,VWS V14.01,2013-08-19 01:14:00,
2013-08-18 21:19:00,69.0,60.0,30.10,SSE,147,0.0,0.0,73,0.00,,OVC250,0.00,VWS V14.01,2013-08-19 01:19:00,
2013-08-18 21:24:00,69.0,59.6,30.09,SSE,147,0.0,4.0,72,0.00,,OVC250,0.00,VWS V14.01,2013-08-19 01:24:00,
2013-08-18 21:29:00,69.1,59.3,30.09,SSE,147,0.0,4.0,71,0.00,,OVC250,0.00,VWS V14.01,2013-08-19 01:29:00,
2013-08-18 21:34:00,69.1,59.3,30.09,SSE,147,0.0,2.0,71,0.00,,OVC250,0.00,VWS V14.01,2013-08-19 01:34:00,
2013-08-18 21:39:00,69.1,59.3,30.09,SSE,147,0.0,2.0,71,0.00,,OVC250,0.00,VWS V14.01,2013-08-19 01:39:00,
2013-08-18 21:44:00,69.0,59.2,30.09,SSE,147,0.0,2.0,71,0.00,,OVC250,0.00,VWS V14.01,2013-08-19 01:44:00,
2013-08-18 21:50:00,68.9,59.5,30.09,SSE,147,0.0,2.0,72,0.00,,OVC250,0.00,VWS V14.01,2013-08-19 01:50:00,
2013-08-18 21:55:00,68.9,59.5,30.09,SSE,147,0.0,2.0,72,0.00,,OVC250,0.00,VWS V14.01,2013-08-19 01:55:00,
2013-08-18 22:00:00,68.8,59.4,30.09,SSE,147,0.0,2.0,72,0.00,,OVC250,0.00,VWS V14.01,2013-08-19 02:00:00,
2013-08-18 22:05:00,68.7,59.3,30.08,SSE,147,0.0,1.0,72,0.00,,OVC250,0.00,VWS V14.01,2013-08-19 02:05:00,
2013-08-18 22:10:00,68.5,59.1,30.08,SSE,147,1.0,2.0,72,0.00,,OVC250,0.00,VWS V14.01,2013-08-19 02:10:00,
2013-08-18 22:15:00,68.4,59.0,30.08,SSE,147,0.0,2.0,72,0.00,,OVC250,0.00,VWS V14.01,2013-08-19 02:15:00,
2013-08-18 22:20:00,68.4,59.0,30.08,SSE,147,0.0,4.0,72,0.00,,OVC250,0.00,VWS V14.01,2013-08-19 02:20:00,
2013-08-18 22:25:00,68.3,58.9,30.08,SSE,147,0.0,4.0,72,0.00,,OVC250,0.00,VWS V14.01,2013-08-19 02:25:00,
2013-08-18 22:30:00,68.1,58.3,30.08,SSE,147,0.0,4.0,71,0.00,,OVC250,0.00,VWS V14.01,2013-08-19 02:30:00,
2013-08-18 22:36:00,68.0,58.3,30.07,SSE,147,0.0,0.0,71,0.00,,OVC250,0.00,VWS V14.01,2013-08-19 02:36:00,
2013-08-18 22:41:00,67.9,58.2,30.07,SSE,147,0.0,2.0,71,0.00,,OVC250,0.00,VWS V14.01,2013-08-19 02:41:00,
2013-08-18 22:46:00,67.9,58.2,30.07,SSE,147,0.0,2.0,71,0.00,,OVC250,0.00,VWS V14.01,2013-08-19 02:46:00,
2013-08-18 22:51:00,67.8,58.1,30.07,SSE,147,2.0,4.0,71,0.00,,OVC250,0.00,VWS V14.01,2013-08-19 02:51:00,
2013-08-18 22:57:00,67.8,58.1,30.07,SSE,147,2.0,5.0,71,0.00,,OVC250,0.00,VWS V14.01,2013-08-19 02:57:00,
2013-08-18 23:03:00,67.7,57.6,30.06,SSE,147,0.0,2.0,70,0.00,,OVC250,0.00,VWS V14.01,2013-08-19 03:03:00,
2013-08-18 23:08:00,67.6,57.9,30.06,SSE,147,0.0,2.0,71,0.00,,OVC250,0.00,VWS V14.01,2013-08-19 03:08:00,
2013-08-18 23:14:00,67.6,57.9,30.06,SSE,147,0.0,2.0,71,0.00,,OVC250,0.00,VWS V14.01,2013-08-19 03:14:00,
2013-08-18 23:19:00,67.5,57.8,30.06,SSE,147,0.0,2.0,71,0.00,,OVC250,0.00,VWS V14.01,2013-08-19 03:19:00,
2013-08-18 23:24:00,67.4,57.7,30.06,SSE,147,0.0,2.0,71,0.00,,OVC250,0.00,VWS V14.01,2013-08-19 03:24:00,
2013-08-18 23:29:00,67.3,58.0,30.06,SSE,147,0.0,2.0,72,0.00,,OVC250,0.00,VWS V14.01,2013-08-19 03:29:00,
2013-08-18 23:34:00,67.2,57.9,30.06,SSE,147,0.0,0.0,72,0.00,,OVC250,0.00,VWS V14.01,2013-08-19 03:34:00,
2013-08-18 23:39:00,67.1,57.8,30.06,SSE,147,0.0,0.0,72,0.00,,OVC250,0.00,VWS V14.01,2013-08-19 03:39:00,
2013-08-18 23:44:00,66.9,57.6,30.06,SSE,147,0.0,0.0,72,0.00,,OVC250,0.00,VWS V14.01,2013-08-19 03:44:00,
2013-08-18 23:49:00,66.8,57.9,30.06,SSE,147,0.0,0.0,73,0.00,,OVC250,0.00,VWS V14.01,2013-08-19 03:49:00,
2013-08-18 23:54:00,66.7,57.8,30.06,SSE,147,0.0,0.0,73,0.00,,OVC250,0.00,VWS V14.01,2013-08-19 03:54:00,